SCP
-0 -0 -0 -0 -0 -0 -0 -0 -0 -0 -0 0 0 0 0 0 0 0 0 0 0 -0 0 0 0 0 0 0 0 -0 -0 -0 0 -0 -0 -0 -0 -0 -0 -0 -0 0 0
-0 -0 -0 -0 -0 -0 -0 -0 -0 -0 -0 -0 0 0 0 0 0 0 0 0 0 0 0 0 0 0 0 0 0 0 0 0 -0 -0 0 -0 0 -0 -0 -0 -0 -0 -0
-0 -0 -0 -0 -0 -0 -0 -0 -0 -0 -0 -0 -0 0 0 0 0 0 -0 0 0 0 0 0 0 0 0 0 -0 0 -0 0 0 0 0 0 0 0 0 -0 -0 -0 -0
-0 -0 -0 -0 -0 -0 -0 -0 -0 -0 -0 -0 -0 -0 -0 0 0 0 0 0 0 0 0 0 0 0 0 0 -0 0 -0 -0 -0 0 0 0 0 0 0 0 -0 -0 -0
-0 -0 -0 -0 -0 -0 -0 -0 -0 -0 -0 -0 -0 -0 0 0 0 0 0 0 0 0 0 0 0 0 0 0 -0 0 0 0 -0 -0 0 0 0 0 0 0 0 0 -0
-0 -0 -0 -0 -0 -0 -0 -0 -0 -0 -0 -0 -0 -0 -0 -0 0 -0 -0 0 0 0 0 0 0 0 0 0 0 0 0 0 -0 -0 0 0 0 0 0 0 0 0 0
-0 -0 -0 -0 -0 -0 -0 -0 -0 -0 -0 -0 -0 -0 -0 -0 -0 -0 -0 -0 -0 0 0 0 0 0 0 -0 0 0 0 0 0 -0 -0 0 0 0 0 0 0 0 0
-0 -0 -0 -0 -0 -0 -0 -0 -0 -0 -0 -0 -0 -0 -0 -0 -0 -0 -0 -0 -0 -0 0 0 0 0 0 -0 0 0 -0 0 0 0 0 0 0 0 0 0 0 0 0
-0 -0 -0 -0 -0 -0 -0 -0 -0 -0 -0 -0 -0 -0 -0 -0 -0 -0 -0 0 -0 -0 -0 0 0 0 0 0 -0 0 0 0 0 0 0 0 0 0 0 0 0 0 0
0 -0 0 -0 -0 -0 -0 -0 -0 -0 -0 0 0 -0 -0 -0 -0 -0 -0 -0 -0 -0 -0 0 0 0 0 0 -0 -0 0 0 0 0 0 0 0 0 0 0 0 0 0
-0 0 0 0 0 -0 -0 -0 -0 0 0 0 0 0 -0 -0 -0 -0 -0 -0 0 -0 -0 -0 0 0 0 0 0 -0 0 0 0 0 0 0 0 0 0 0 0 0 0
0 0 0 0 0 -0 -0 -0 0 0 0 -0 -0 -0 -0 -0 -0 -0 -0 -0 0 0 0 0 0 0 0 0 0 0 0 0 0 0 0 0 0 0 0 0 0 0 0
-0 0 -0 0 0 0 0 0 0 -0 -0 -0 -0 -0 -0 0 -0 -0 -0 -0 0 0 0 0 0 0 0 0 0 0 0 0 0 0 0 0 0 0 0 0 0 0 0
0 0 0 0 0 0 0 0 0 0 0 0 -0 0 0 0 0 0 0 0 0 0 0 0 0 0 0 -0 0 0 0 0 0 0 0 0 0 0 0 0 0 0 0
-0 0 0 0 0 0 0 0 0 0 0 0 0 0 0 0 0 0 1 1 1 0 0 0 0 0 0 0 0 0 0 0 0 0 0 0 0 0 0 0 0 0 0
0 0 0 0 0 0 0 0 0 0 1 1 1 1 1 1 0 0 1 1 0 0 0 0 0 0 0 0 0 0 0 0 0 0 0 0 0 0 0 0 0 0 0
0 0 0 0 0 0 0 0 0 -0 0 0 0 1 1 1 1 1 1 1 1 1 0 0 1 1 1 0 0 0 0 0 0 0 0 0 0 0 0 0 0 0 0
0 0 0 0 0 0 0 0 0 0 0 0 0 0 1 1 1 1 1 1 1 1 1 1 1 1 1 0 0 -0 0 0 0 0 0 0 0 0 0 0 0 0 0
-0 0 0 0 -0 0 -0 -0 -0 -0 0 0 0 1 1 1 1 1 1 1 1 0 1 1 1 1 1 0 0 0 0 0 0 0 0 0 0 0 0 0 0 0 0
0 0 0 -0 0 -0 -0 -0 -0 -0 -0 0 0 0 0 0 1 1 1 1 1 1 1 1 1 1 1 0 0 0 0 0 0 0 0 0 0 0 0 0 0 0 0
0 0 -0 0 0 0 0 0 0 0 0 0 0 0 0 0 0 0 1 1 1 1 1 1 1 1 1 0 0 0 0 0 0 0 0 0 0 0 0 0 0 0 0
0 0 0 0 0 0 1 1 1 1 1 0 0 -0 -0 0 0 0 0 0 1 1 1 1 1 1 0 0 0 0 0 0 0 0 0 0 0 0 0 0 0 0 0
0 0 0 0 0 0 1 1 1 1 1 0 0 -0 -0 0 0 1 0 0 0 1 1 1 1 1 0 0 0 0 0 0 0 0 0 0 0 0 0 0 0 0 0
0 0 0 0 0 1 1 0 0 0 0 0 0 0 0 0 0 0 1 1 1 1 1 1 1 1 0 0 0 0 0 0 0 0 0 0 0 0 0 0 0 0 0
0 0 0 0 0 0 0 0 0 0 0 0 0 0 0 0 0 1 1 1 1 1 1 1 2 1 0 0 0 0 0 0 0 0 0 0 0 0 0 0 0 0 0
0 0 0 0 0 0 0 0 0 0 0 0 0 0 0 0 0 1 1 0 0 0 0 0 0 1 1 0 0 0 0 0 0 0 0 0 0 0 0 0 0 0 0
Wind_Speed_500mb
59 51 49 54 61 56 53 50 49 40 38 37 36 33 28 24 14 10 6 11 4 10 5 3 4 7 5 8 12 6 6 5 11 24 26 29 32 32 31 33 28 26 18
62 55 53 54 54 61 56 50 50 47 41 34 26 36 36 28 19 18 11 11 10 4 7 6 6 11 10 10 8 13 11 10 12 15 22 24 28 30 29 27 25 28 28
70 64 58 57 53 60 61 51 48 49 45 33 30 41 45 38 28 18 15 11 7 4 7 7 8 9 10 8 3 18 16 12 15 20 7 12 8 24 21 18 15 20 23
68 66 60 56 56 56 60 55 50 50 48 42 36 35 37 39 28 17 14 15 10 6 6 6 5 8 7 6 2 15 18 18 17 24 13 10 8 8 13 16 13 12 15
70 65 60 60 51 52 58 60 54 52 52 48 43 39 33 34 32 25 14 13 14 13 11 10 8 6 7 7 7 8 16 19 19 21 23 17 15 16 14 22 21 15 12
70 68 58 50 53 54 53 61 59 53 55 53 47 44 37 33 34 30 22 15 18 21 17 16 15 12 6 11 11 9 11 15 21 23 24 25 22 26 18 16 27 19 15
55 64 67 64 56 60 59 56 57 55 53 55 50 46 41 34 32 29 24 19 17 17 19 20 19 13 12 12 11 7 7 10 16 22 23 25 22 25 24 21 30 28 22
58 58 64 69 63 59 54 63 56 54 57 53 48 47 43 40 35 32 26 19 17 10 15 17 17 17 17 14 12 9 6 8 8 14 21 23 20 20 25 27 27 29 29
57 58 53 63 69 66 53 53 54 58 57 59 49 47 46 44 40 34 31 25 22 18 19 18 18 19 21 16 13 11 10 9 8 11 15 17 20 22 22 22 26 33 31
43 52 51 47 64 61 58 54 56 52 53 61 53 49 45 46 44 40 39 35 29 27 25 24 20 21 23 20 16 16 14 11 10 11 16 18 18 18 23 26 25 27 37
41 50 45 39 47 59 56 52 53 64 63 48 60 47 52 45 48 46 43 41 37 34 32 29 26 24 25 23 23 20 19 17 13 10 11 16 18 16 17 23 24 28 35
11 37 39 39 39 48 60 56 50 59 46 13 50 65 53 56 49 50 46 47 46 42 39 36 34 31 29 30 28 24 22 22 19 16 14 15 16 13 13 18 22 25 34
14 23 25 35 35 36 42 47 46 47 50 61 23 49 58 57 57 52 46 45 47 51 51 49 46 41 37 35 35 30 27 26 26 23 18 18 18 16 16 19 22 24 28
24 28 25 19 17 20 29 36 39 38 40 48 54 53 41 45 53 53 48 45 45 48 52 56 57 50 45 42 39 38 34 32 30 29 25 21 20 20 20 21 25 26 27
30 26 20 14 8 8 11 14 14 15 18 31 47 56 60 68 65 59 56 52 50 51 53 54 56 59 58 52 49 46 42 39 34 33 31 26 23 25 22 18 19 21 26
40 38 32 29 28 27 24 19 15 11 7 10 17 25 36 45 54 56 55 53 52 51 53 58 59 62 63 60 57 52 43 41 38 36 33 31 28 27 26 23 21 18 21
41 37 38 31 29 28 31 30 24 18 13 7 6 13 21 28 37 42 48 53 53 46 48 50 54 55 56 52 39 71 40 37 41 40 36 35 31 33 31 30 29 27 26
33 35 34 30 31 31 28 28 22 18 20 22 18 12 11 17 22 27 39 47 49 49 48 52 54 53 53 46 48 35 41 44 51 47 37 37 34 37 37 37 34 32 34
32 34 33 33 29 31 35 37 30 19 21 20 17 18 20 18 18 21 29 32 38 47 51 54 55 59 56 53 52 44 59 53 56 50 46 39 36 40 41 39 37 36 35
35 34 35 31 24 26 26 21 24 22 14 14 16 22 24 27 27 25 26 26 32 41 40 46 52 56 56 55 51 45 49 54 60 62 58 46 40 50 48 46 42 39 39
32 38 31 18 14 12 10 7 8 7 8 16 24 24 27 32 31 32 34 34 33 32 34 39 46 53 55 55 50 50 53 56 64 72 66 55 49 60 56 52 47 40 37
36 32 22 15 12 10 14 12 8 8 12 22 33 34 35 35 35 35 34 33 39 43 42 43 46 50 54 54 52 56 52 50 55 65 69 67 55 63 59 55 47 42 40
31 28 20 18 16 24 17 18 13 13 17 24 32 36 38 37 38 36 35 37 41 44 47 49 49 52 55 53 46 44 45 47 54 53 65 61 54 61 60 58 54 53 51
37 33 28 34 29 22 21 18 19 20 21 25 31 36 40 43 44 39 37 41 43 45 48 53 53 47 43 39 39 41 48 45 52 61 70 50 50 64 64 64 65 62 60
42 40 43 35 26 24 22 22 23 25 29 34 40 43 43 47 51 47 44 47 46 44 47 49 53 51 50 44 45 46 46 46 49 55 68 59 60 72 73 73 75 72 67
36 38 34 32 28 24 21 21 22 28 36 44 48 53 59 59 58 54 53 48 47 45 43 43 42 48 49 47 46 46 47 39 36 63 80 73 72 77 85 83 82 80 75
Wind_Direction_500mb
221 221 221 220 220 219 216 213 211 208 206 214 211 216 223 230 243 240 279 205 285 249 257 312 285 223 262 268 291 275 152 137 85 120 104 93 81 95 94 95 92 84 86
218 222 223 221 225 220 217 217 216 211 207 217 221 227 229 236 240 239 248 236 278 233 243 275 257 255 273 294 326 174 173 155 144 134 110 98 90 97 101 98 92 76 74
218 224 223 226 229 224 220 221 221 214 213 216 220 227 229 235 242 232 227 258 254 255 251 264 276 268 257 290 273 177 187 204 178 172 129 136 128 114 111 108 99 84 86
223 225 227 226 231 232 226 226 228 222 220 217 217 223 229 233 238 243 266 234 230 260 257 287 280 265 255 257 226 186 203 207 214 208 233 232 171 159 152 159 155 129 108
227 224 226 231 232 230 225 226 231 227 223 221 223 228 230 235 237 238 255 232 245 254 257 268 283 260 243 234 211 196 209 211 216 222 226 234 222 189 185 182 188 171 153
229 231 229 230 231 223 221 230 232 229 229 227 228 230 230 234 233 230 236 248 255 251 249 256 258 248 271 236 249 255 236 234 220 220 226 229 228 211 219 203 194 193 191
221 229 224 222 223 220 221 226 234 234 231 233 231 234 232 234 235 238 244 254 279 251 240 251 255 260 276 259 264 265 278 261 244 232 227 226 231 236 239 231 201 199 203
222 224 225 223 223 223 225 230 235 235 229 233 235 234 234 234 237 242 247 247 253 287 244 261 259 259 269 269 261 266 256 274 238 218 218 225 230 230 230 235 229 213 218
218 215 225 221 224 227 229 233 243 241 234 235 236 235 235 235 237 237 242 244 248 258 250 254 257 248 254 259 251 260 251 284 285 216 212 218 223 227 235 233 238 243 226
219 216 221 224 225 229 234 236 243 245 243 237 242 241 239 240 242 243 245 249 250 250 251 251 258 250 250 253 251 251 247 258 276 242 229 227 232 236 240 237 235 236 237
235 220 215 218 229 229 232 235 240 240 236 246 248 260 247 245 247 246 246 247 250 251 253 253 256 252 250 250 250 247 244 247 253 251 240 239 242 250 240 239 230 225 231
244 218 207 216 227 235 236 241 247 244 205 188 266 253 260 250 251 252 251 249 248 250 254 255 254 250 243 247 248 249 252 255 255 257 252 253 252 249 232 226 233 227 227
204 191 191 214 231 242 250 254 254 244 238 221 229 263 259 252 252 252 254 253 250 250 252 253 255 250 246 244 248 245 244 246 250 251 253 252 245 235 233 231 225 227 228
184 177 183 199 235 258 261 268 271 262 250 242 244 249 253 244 249 252 254 257 259 256 254 252 252 254 248 247 249 246 244 243 246 249 245 242 237 230 227 236 230 228 223
107 106 109 127 160 203 241 269 290 286 276 250 251 254 259 263 262 260 258 260 262 261 257 255 254 254 250 246 246 244 240 238 240 243 245 239 230 222 223 217 213 204 205
118 113 104 100 98 93 88 70 43 24 354 311 292 279 273 270 268 266 264 261 261 266 263 257 257 255 256 254 251 248 247 234 237 238 240 242 230 223 216 210 194 205 212
126 122 112 107 100 91 84 73 60 48 47 34 330 296 277 265 267 263 259 258 261 268 264 261 260 264 264 271 281 276 250 252 239 236 234 238 235 221 213 207 202 206 206
139 125 126 119 112 100 80 64 65 58 42 39 36 24 330 299 284 278 268 264 264 266 268 262 263 265 264 251 276 285 223 256 238 233 233 238 242 228 215 208 208 202 204
156 146 140 133 124 95 79 67 63 74 58 38 22 8 352 341 332 308 284 276 269 265 261 262 264 267 267 263 265 243 239 246 229 226 226 226 238 234 221 213 203 198 202
168 160 151 143 125 103 80 64 48 57 37 12 342 330 324 322 315 306 298 291 277 270 270 267 262 262 266 268 268 259 243 240 225 218 219 212 247 230 224 218 211 200 202
176 171 165 148 136 129 122 82 35 35 1 359 350 328 315 311 307 301 292 290 287 280 274 273 267 264 266 269 271 266 258 246 229 221 215 221 221 224 220 218 213 209 198
171 171 180 183 191 216 238 245 280 295 309 339 350 344 327 311 298 294 295 294 288 282 278 278 276 270 266 265 268 270 268 263 248 239 224 224 232 218 215 215 210 201 199
189 197 200 219 211 281 254 251 246 252 291 316 335 337 338 331 319 292 281 288 291 289 280 275 277 278 279 276 274 265 260 254 245 246 242 233 233 221 217 213 205 198 200
211 220 225 226 240 244 247 230 239 265 283 304 317 321 323 323 321 308 291 289 293 289 282 276 275 277 274 268 270 277 261 251 240 244 230 232 229 219 217 212 206 207 207
225 230 232 241 237 237 227 233 252 271 289 304 312 313 311 312 311 307 302 295 298 296 291 279 271 270 271 270 272 274 272 262 245 238 226 224 219 214 216 213 212 210 209
229 237 240 235 241 241 248 255 265 285 301 305 308 308 306 306 305 299 303 301 300 297 289 281 270 270 271 273 268 263 259 257 259 230 226 224 220 221 216 215 214 216 215
Wind_Speed_850mb
59 51 49 54 61 56 53 50 49 40 38 37 36 33 28 24 14 10 6 11 4 10 5 3 4 7 5 8 12 6 6 5 11 24 26 29 32 32 31 33 28 26 18
62 55 53 54 54 61 56 50 50 47 41 34 26 36 36 28 19 18 11 11 10 4 7 6 6 11 10 10 8 13 11 10 12 15 22 24 28 30 29 27 25 28 28
70 64 58 57 53 60 61 51 48 49 45 33 30 41 45 38 28 18 15 11 7 4 7 7 8 9 10 8 3 18 16 12 15 20 7 12 8 24 21 18 15 20 23
68 66 60 56 56 56 60 55 50 50 48 42 36 35 37 39 28 17 14 15 10 6 6 6 5 8 7 6 2 15 18 18 17 24 13 10 8 8 13 16 13 12 15
70 65 60 60 51 52 58 60 54 52 52 48 43 39 33 34 32 25 14 13 14 13 11 10 8 6 7 7 7 8 16 19 19 21 23 17 15 16 14 22 21 15 12
70 68 58 50 53 54 53 61 59 53 55 53 47 44 37 33 34 30 22 15 18 21 17 16 15 12 6 11 11 9 11 15 21 23 24 25 22 26 18 16 27 19 15
55 64 67 64 56 60 59 56 57 55 53 55 50 46 41 34 32 29 24 19 17 17 19 20 19 13 12 12 11 7 7 10 16 22 23 25 22 25 24 21 30 28 22
58 58 64 69 63 59 54 63 56 54 57 53 48 47 43 40 35 32 26 19 17 10 15 17 17 17 17 14 12 9 6 8 8 14 21 23 20 20 25 27 27 29 29
57 58 53 63 69 66 53 53 54 58 57 59 49 47 46 44 40 34 31 25 22 18 19 18 18 19 21 16 13 11 10 9 8 11 15 17 20 22 22 22 26 33 31
43 52 51 47 64 61 58 54 56 52 53 61 53 49 45 46 44 40 39 35 29 27 25 24 20 21 23 20 16 16 14 11 10 11 16 18 18 18 23 26 25 27 37
41 50 45 39 47 59 56 52 53 64 63 48 60 47 52 45 48 46 43 41 37 34 32 29 26 24 25 23 23 20 19 17 13 10 11 16 18 16 17 23 24 28 35
11 37 39 39 39 48 60 56 50 59 46 13 50 65 53 56 49 50 46 47 46 42 39 36 34 31 29 30 28 24 22 22 19 16 14 15 16 13 13 18 22 25 34
14 23 25 35 35 36 42 47 46 47 50 61 23 49 58 57 57 52 46 45 47 51 51 49 46 41 37 35 35 30 27 26 26 23 18 18 18 16 16 19 22 24 28
24 28 25 19 17 20 29 36 39 38 40 48 54 53 41 45 53 53 48 45 45 48 52 56 57 50 45 42 39 38 34 32 30 29 25 21 20 20 20 21 25 26 27
30 26 20 14 8 8 11 14 14 15 18 31 47 56 60 68 65 59 56 52 50 51 53 54 56 59 58 52 49 46 42 39 34 33 31 26 23 25 22 18 19 21 26
40 38 32 29 28 27 24 19 15 11 7 10 17 25 36 45 54 56 55 53 52 51 53 58 59 62 63 60 57 52 43 41 38 36 33 31 28 27 26 23 21 18 21
41 37 38 31 29 28 31 30 24 18 13 7 6 13 21 28 37 42 48 53 53 46 48 50 54 55 56 52 39 71 40 37 41 40 36 35 31 33 31 30 29 27 26
33 35 34 30 31 31 28 28 22 18 20 22 18 12 11 17 22 27 39 47 49 49 48 52 54 53 53 46 48 35 41 44 51 47 37 37 34 37 37 37 34 32 34
32 34 33 33 29 31 35 37 30 19 21 20 17 18 20 18 18 21 29 32 38 47 51 54 55 59 56 53 52 44 59 53 56 50 46 39 36 40 41 39 37 36 35
35 34 35 31 24 26 26 21 24 22 14 14 16 22 24 27 27 25 26 26 32 41 40 46 52 56 56 55 51 45 49 54 60 62 58 46 40 50 48 46 42 39 39
32 38 31 18 14 12 10 7 8 7 8 16 24 24 27 32 31 32 34 34 33 32 34 39 46 53 55 55 50 50 53 56 64 72 66 55 49 60 56 52 47 40 37
36 32 22 15 12 10 14 12 8 8 12 22 33 34 35 35 35 35 34 33 39 43 42 43 46 50 54 54 52 56 52 50 55 65 69 67 55 63 59 55 47 42 40
31 28 20 18 16 24 17 18 13 13 17 24 32 36 38 37 38 36 35 37 41 44 47 49 49 52 55 53 46 44 45 47 54 53 65 61 54 61 60 58 54 53 51
37 33 28 34 29 22 21 18 19 20 21 25 31 36 40 43 44 39 37 41 43 45 48 53 53 47 43 39 39 41 48 45 52 61 70 50 50 64 64 64 65 62 60
42 40 43 35 26 24 22 22 23 25 29 34 40 43 43 47 51 47 44 47 46 44 47 49 53 51 50 44 45 46 46 46 49 55 68 59 60 72 73 73 75 72 67
36 38 34 32 28 24 21 21 22 28 36 44 48 53 59 59 58 54 53 48 47 45 43 43 42 48 49 47 46 46 47 39 36 63 80 73 72 77 85 83 82 80 75
Wind_Direction_850mb
221 221 221 220 220 219 216 213 211 208 206 214 211 216 223 230 243 240 279 205 285 249 257 312 285 223 262 268 291 275 152 137 85 120 104 93 81 95 94 95 92 84 86
218 222 223 221 225 220 217 217 216 211 207 217 221 227 229 236 240 239 248 236 278 233 243 275 257 255 273 294 326 174 173 155 144 134 110 98 90 97 101 98 92 76 74
218 224 223 226 229 224 220 221 221 214 213 216 220 227 229 235 242 232 227 258 254 255 251 264 276 268 257 290 273 177 187 204 178 172 129 136 128 114 111 108 99 84 86
223 225 227 226 231 232 226 226 228 222 220 217 217 223 229 233 238 243 266 234 230 260 257 287 280 265 255 257 226 186 203 207 214 208 233 232 171 159 152 159 155 129 108
227 224 226 231 232 230 225 226 231 227 223 221 223 228 230 235 237 238 255 232 245 254 257 268 283 260 243 234 211 196 209 211 216 222 226 234 222 189 185 182 188 171 153
229 231 229 230 231 223 221 230 232 229 229 227 228 230 230 234 233 230 236 248 255 251 249 256 258 248 271 236 249 255 236 234 220 220 226 229 228 211 219 203 194 193 191
221 229 224 222 223 220 221 226 234 234 231 233 231 234 232 234 235 238 244 254 279 251 240 251 255 260 276 259 264 265 278 261 244 232 227 226 231 236 239 231 201 199 203
222 224 225 223 223 223 225 230 235 235 229 233 235 234 234 234 237 242 247 247 253 287 244 261 259 259 269 269 261 266 256 274 238 218 218 225 230 230 230 235 229 213 218
218 215 225 221 224 227 229 233 243 241 234 235 236 235 235 235 237 237 242 244 248 258 250 254 257 248 254 259 251 260 251 284 285 216 212 218 223 227 235 233 238 243 226
219 216 221 224 225 229 234 236 243 245 243 237 242 241 239 240 242 243 245 249 250 250 251 251 258 250 250 253 251 251 247 258 276 242 229 227 232 236 240 237 235 236 237
235 220 215 218 229 229 232 235 240 240 236 246 248 260 247 245 247 246 246 247 250 251 253 253 256 252 250 250 250 247 244 247 253 251 240 239 242 250 240 239 230 225 231
244 218 207 216 227 235 236 241 247 244 205 188 266 253 260 250 251 252 251 249 248 250 254 255 254 250 243 247 248 249 252 255 255 257 252 253 252 249 232 226 233 227 227
204 191 191 214 231 242 250 254 254 244 238 221 229 263 259 252 252 252 254 253 250 250 252 253 255 250 246 244 248 245 244 246 250 251 253 252 245 235 233 231 225 227 228
184 177 183 199 235 258 261 268 271 262 250 242 244 249 253 244 249 252 254 257 259 256 254 252 252 254 248 247 249 246 244 243 246 249 245 242 237 230 227 236 230 228 223
107 106 109 127 160 203 241 269 290 286 276 250 251 254 259 263 262 260 258 260 262 261 257 255 254 254 250 246 246 244 240 238 240 243 245 239 230 222 223 217 213 204 205
118 113 104 100 98 93 88 70 43 24 354 311 292 279 273 270 268 266 264 261 261 266 263 257 257 255 256 254 251 248 247 234 237 238 240 242 230 223 216 210 194 205 212
126 122 112 107 100 91 84 73 60 48 47 34 330 296 277 265 267 263 259 258 261 268 264 261 260 264 264 271 281 276 250 252 239 236 234 238 235 221 213 207 202 206 206
139 125 126 119 112 100 80 64 65 58 42 39 36 24 330 299 284 278 268 264 264 266 268 262 263 265 264 251 276 285 223 256 238 233 233 238 242 228 215 208 208 202 204
156 146 140 133 124 95 79 67 63 74 58 38 22 8 352 341 332 308 284 276 269 265 261 262 264 267 267 263 265 243 239 246 229 226 226 226 238 234 221 213 203 198 202
168 160 151 143 125 103 80 64 48 57 37 12 342 330 324 322 315 306 298 291 277 270 270 267 262 262 266 268 268 259 243 240 225 218 219 212 247 230 224 218 211 200 202
176 171 165 148 136 129 122 82 35 35 1 359 350 328 315 311 307 301 292 290 287 280 274 273 267 264 266 269 271 266 258 246 229 221 215 221 221 224 220 218 213 209 198
171 171 180 183 191 216 238 245 280 295 309 339 350 344 327 311 298 294 295 294 288 282 278 278 276 270 266 265 268 270 268 263 248 239 224 224 232 218 215 215 210 201 199
189 197 200 219 211 281 254 251 246 252 291 316 335 337 338 331 319 292 281 288 291 289 280 275 277 278 279 276 274 265 260 254 245 246 242 233 233 221 217 213 205 198 200
211 220 225 226 240 244 247 230 239 265 283 304 317 321 323 323 321 308 291 289 293 289 282 276 275 277 274 268 270 277 261 251 240 244 230 232 229 219 217 212 206 207 207
225 230 232 241 237 237 227 233 252 271 289 304 312 313 311 312 311 307 302 295 298 296 291 279 271 270 271 270 272 274 272 262 245 238 226 224 219 214 216 213 212 210 209
229 237 240 235 241 241 248 255 265 285 301 305 308 308 306 306 305 299 303 301 300 297 289 281 270 270 271 273 268 263 259 257 259 230 226 224 220 221 216 215 214 216 215